Weather History for North Platte, NE

Change the Weather History Date:

Wednesday, July 17, 2013

  Actual Average Record
Temperature  
Mean Temperature 76 °F 75 °F  
Max Temperature 89 °F 89 °F 107 °F (2003)
Min Temperature 63 °F 61 °F 48 °F (1900)
Degree Days  
Heating Degree Days 0 0  
Month to date heating degree days 4 0  
Since 1 June heating degree days 51 51  
Since 1 July heating degree days 4 0  
Cooling Degree Days 11 10  
Month to date cooling degree days 195 156  
Year to date cooling degree days 422 322  
Since 1 June cooling degree days 374 294  
Growing Degree Days 26 (Base 50)    
Moisture  
Dew Point 59 °F    
Average Humidity 64    
Maximum Humidity 90    
Minimum Humidity 37    
Precipitation  
Precipitation 0.00 in 0.10 in 1.56 in (1923)
Month to date precipitation 0.07 1.62  
Year to date precipitation 8.18 12.48  
Snow  
Snow 0.00 in 0.00 in T in (2010)
Month to date snowfall 0.0 0.0  
Since 1 June snowfall T 0.0  
Since 1 July snowfall 0.0 0.0  
Snow Depth 0.00 in    
Sea Level Pressure  
Sea Level Pressure 30.17 in    
Wind  
Wind Speed 12 mph (South)    
Max Wind Speed 23 mph    
Max Gust Speed 31 mph    
Visibility 10 miles    
Events      
T = Trace of Precipitation, MM = Missing Value Source: NWS Daily Summary

Daily Weather History Graph

Daily Weather History Graph

Search for Another Location

Airport:

Trip Planner

Search our weather history database for the weather conditions in past years. The results will help you decide how hot, cold, wet, or windy it might be!

Date:

Astronomy

Jul. 17, 2013 Rise Set
Actual Time 6:24 AM CDT 9:12 PM CDT
Civil Twilight 5:52 AM CDT 9:44 PM CDT
Nautical Twilight 5:11 AM CDT 10:25 PM CDT
Astronomical Twilight 4:24 AM CDT 11:11 PM CDT
Moon 4:02 PM CDT (7/17) 1:34 AM CDT (7/17)
Length of Visible Light 15h 52m
Length of Day
14h 47m
Waxing Gibbous, 67% of the Moon is Illuminated
Jul 17
Waxing Gibbous
Jul 22
Full
Jul 29
Last Quarter
Aug 6
New
Aug 14
First Quarter

Hourly Weather History & Observations

Time (CDT) Temp. Heat Index Dew Point Humidity Pressure Visibility Wind Dir Wind Speed Gust Speed Precip Events Conditions
12:53 AM 70.0 °F - 59.0 °F 68% 30.23 in 10.0 mi South 8.1 mph - N/A   Clear
1:53 AM 68.0 °F - 59.0 °F 73% 30.22 in 10.0 mi SSE 6.9 mph - N/A   Clear
2:53 AM 68.0 °F - 59.0 °F 73% 30.22 in 10.0 mi South 8.1 mph - N/A   Clear
3:53 AM 66.0 °F - 59.0 °F 78% 30.22 in 10.0 mi South 9.2 mph - N/A   Clear
4:53 AM 64.9 °F - 59.0 °F 81% 30.21 in 10.0 mi South 9.2 mph - N/A   Clear
5:53 AM 64.0 °F - 57.9 °F 80% 30.22 in 10.0 mi South 8.1 mph - N/A   Clear
6:53 AM 63.0 °F - 59.0 °F 87% 30.23 in 10.0 mi SSE 8.1 mph - N/A   Clear
7:53 AM 66.0 °F - 60.1 °F 81% 30.24 in 10.0 mi South 10.4 mph - N/A   Clear
8:53 AM 70.0 °F - 60.1 °F 71% 30.25 in 10.0 mi South 13.8 mph - N/A   Clear
9:53 AM 73.9 °F - 61.0 °F 64% 30.25 in 10.0 mi South 12.7 mph - N/A   Clear
10:53 AM 79.0 °F - 60.1 °F 52% 30.23 in 10.0 mi South 17.3 mph 23.0 mph N/A   Clear
11:53 AM 82.0 °F 82.4 °F 60.1 °F 47% 30.20 in 10.0 mi South 20.7 mph 26.5 mph N/A   Clear
12:53 PM 84.9 °F 84.8 °F 60.1 °F 43% 30.20 in 10.0 mi South 15.0 mph 24.2 mph N/A   Clear
1:53 PM 86.0 °F 86.1 °F 61.0 °F 43% 30.18 in 10.0 mi South 18.4 mph 28.8 mph N/A   Clear
2:53 PM 88.0 °F 87.9 °F 61.0 °F 40% 30.16 in 10.0 mi South 15.0 mph 27.6 mph N/A   Partly Cloudy
3:53 PM 86.0 °F 85.7 °F 60.1 °F 41% 30.14 in 10.0 mi SSW 17.3 mph 24.2 mph N/A   Mostly Cloudy
4:53 PM 87.1 °F 86.7 °F 60.1 °F 40% 30.12 in 10.0 mi South 15.0 mph 24.2 mph N/A   Partly Cloudy
5:53 PM 86.0 °F 85.4 °F 59.0 °F 40% 30.11 in 10.0 mi South 11.5 mph - N/A   Scattered Clouds
6:53 PM 86.0 °F 85.0 °F 57.9 °F 38% 30.08 in 10.0 mi South 13.8 mph 21.9 mph N/A   Partly Cloudy
7:53 PM 86.0 °F 84.9 °F 57.0 °F 37% 30.07 in 10.0 mi South 12.7 mph - N/A   Clear
8:53 PM 82.9 °F 82.6 °F 57.9 °F 42% 30.07 in 10.0 mi South 9.2 mph - N/A   Clear
9:53 PM 79.0 °F - 55.9 °F 45% 30.09 in 10.0 mi SSE 6.9 mph - N/A   Clear
10:53 PM 79.0 °F - 57.9 °F 48% 30.09 in 10.0 mi SSE 10.4 mph - N/A   Clear
11:53 PM 78.1 °F - 57.9 °F 50% 30.09 in 10.0 mi South 11.5 mph - N/A   Clear